Flag for Norway Weather past 2 weeks in Hamar, Norway

Now
48 °F

Cool.


Feels Like: 48 °F
Forecast: 52 / 72 °F
Wind: 1 mph from South

Location: Haugedalshogda

Current Time: Sep 3, 2014 at 9:42:18 AM

Latest Report: Sep 3, 2014 at 9:00 AM


Visibility: N/A

Pressure: 30.37 "Hg

Humidity: 94%

Dew point: 46 °F

Location of HamarLocation

Historic Weather in Hamar — Graph

°F

Hamar temperature yesterday

Maximum temperature yesterday: 68 °F (at 3:00 PM)
Minimum temperature yesterday: 40 °F (at 2:00 AM)
Average temperature yesterday: 53 °F

Past Weeks' High & Low Weather Summary

 TemperatureHumidityPressure
High68 °F (Sep 2, 3:00 PM)95% (Aug 23, 5:00 AM)30.37 "Hg (Aug 23, 5:00 AM)
Low36 °F (Aug 29, 6:00 AM)38% (Aug 21, 3:00 PM)29.26 "Hg (Aug 19, 8:00 AM)
Average52 °F79%29.86 "Hg
* Reported Aug 19 8:00 AM — Sep 3 8:00 AM, Hamar, Weather by CustomWeather, © 2014

Note: Actual official high and low records may vary slightly from our data, if they occured in-between our weather recording intervals... More about our weather records

Advertising

Hamar weather history for previous 24 hours

 ConditionsComfort  
Time TempWeatherWind HumidityBarometerVisibility
8:00 AM
Sep 3
43 °FQuite cool.1 mph94%30.37 "HgN/A
7:00 AM42 °FQuite cool.1 mph94%30.37 "HgN/A
6:00 AM39 °FChilly.No wind94%30.36 "HgN/A
5:00 AM39 °FChilly.1 mph93%30.35 "HgN/A
4:00 AM40 °FQuite cool.1 mph93%30.34 "HgN/A
3:00 AM44 °FQuite cool.1 mph93%30.33 "HgN/A
2:00 AM44 °FQuite cool.No wind93%30.31 "HgN/A
1:00 AM45 °FQuite cool.1 mph92%30.31 "HgN/A
12:00 AM46 °FCool.No wind92%30.29 "HgN/A
11:00 PM
Sep 2
46 °FCool.1 mph90%30.27 "HgN/A
10:00 PM48 °FCool.1 mph87%30.26 "HgN/A
9:00 PM55 °FCool.2 mph83%30.23 "HgN/A
8:00 PM54 °FCool.3 mph81%30.22 "HgN/A
7:00 PM63 °FMild.3 mph63%30.19 "HgN/A
6:00 PM65 °FMild.3 mph62%30.18 "HgN/A
5:00 PM65 °FMild.2 mph60%30.18 "HgN/A
4:00 PM67 °FMild.3 mph51%30.17 "HgN/A
3:00 PM68 °FMild.5 mph45%30.17 "HgN/A
2:00 PM68 °FMild.5 mph51%30.17 "HgN/A
1:00 PM67 °FMild.5 mph54%30.18 "HgN/A
12:00 PM64 °FMild.5 mph62%30.18 "HgN/A
11:00 AM60 °FCool.3 mph69%30.20 "HgN/A
10:00 AM54 °FCool.1 mph80%30.20 "HgN/A
9:00 AM50 °FCool.2 mph91%30.20 "HgN/A
Weather by CustomWeather, © 2014

See weather overviewHow to use our weather pages